When you browse on this site, cookies collect data to enhance your experience and personalize the content and advertising you see.
Visit our Privacy Policy to learn more. By continuing to use the site, you agree to this use of cookies and data.
  • In Hungary
  • List of Countries
  • For 7 days
  • Water Temperature
  • Satellite Maps
  • Weather Map
  • News
  • Weather Widgets
  • user-avatar
    Login

    Hourly Weather Zdanow

    Today, 21 November, Wednesday

    Time Temperature Precipitation Wind Pressure Humidity
    00:00 -4°C° 0 mm 6 mps 747 mmHg 76%
    01:00 -4°C° 0 mm 6 mps 747 mmHg 76%
    02:00 -5°C° 0 mm 5 mps 748 mmHg 83%
    03:00 -5°C° 0 mm 5 mps 747 mmHg 84%
    04:00 -5°C° 0 mm 5 mps 747 mmHg 84%
    05:00 -5°C° 0 mm 6 mps 747 mmHg 85%
    06:00 -5°C° 0 mm 6 mps 747 mmHg 85%
    07:00 -4°C° 0 mm 5 mps 747 mmHg 86%
    08:00 -4°C° 0 mm 5 mps 747 mmHg 85%
    09:00 -4°C° 0 mm 5 mps 748 mmHg 84%
    10:00 -4°C° 0 mm 5 mps 748 mmHg 83%
    11:00 -2°C° 0 mm 5 mps 748 mmHg 81%
    12:00 -2°C° 0 mm 5 mps 748 mmHg 80%
    13:00 -2°C° 0 mm 5 mps 748 mmHg 80%
    14:00 -1°C° 0 mm 5 mps 748 mmHg 79%
    15:00 -2°C° 0 mm 5 mps 748 mmHg 80%
    16:00 -2°C° 0 mm 5 mps 748 mmHg 81%
    17:00 -2°C° 0 mm 4 mps 748 mmHg 82%
    18:00 -3°C° 0 mm 4 mps 749 mmHg 82%
    19:00 -3°C° 0 mm 4 mps 749 mmHg 83%
    20:00 -3°C° 0 mm 4 mps 749 mmHg 83%
    21:00 -4°C° 0 mm 4 mps 749 mmHg 85%
    22:00 -4°C° 0 mm 4 mps 749 mmHg 86%
    23:00 -4°C° 0 mm 4 mps 750 mmHg 87%

    Tomorrow, 22 November, Thursday

    Time Temperature Precipitation Wind Pressure Humidity
    00:00 -5°C° 0 mm 4 mps 750 mmHg 88%
    01:00 -5°C° 0 mm 4 mps 750 mmHg 88%
    02:00 -5°C° 0 mm 4 mps 750 mmHg 89%
    03:00 -5°C° 0 mm 4 mps 749 mmHg 89%
    04:00 -5°C° 0 mm 4 mps 749 mmHg 89%
    05:00 -5°C° 0 mm 3 mps 749 mmHg 90%
    06:00 -5°C° 0 mm 3 mps 750 mmHg 90%
    07:00 -5°C° 0 mm 3 mps 750 mmHg 90%
    08:00 -6°C° 0 mm 3 mps 750 mmHg 90%
    09:00 -5°C° 0 mm 3 mps 750 mmHg 85%
    10:00 -4°C° 0 mm 3 mps 750 mmHg 80%
    11:00 -2°C° 0 mm 3 mps 750 mmHg 76%
    12:00 -1°C° 0 mm 3 mps 750 mmHg 73%
    13:00 0°C° 0 mm 3 mps 750 mmHg 71%
    14:00 0°C° 0 mm 3 mps 750 mmHg 69%
    15:00 -1°C° 0 mm 3 mps 750 mmHg 73%
    16:00 -2°C° 0 mm 2 mps 750 mmHg 77%
    17:00 -3°C° 0 mm 2 mps 750 mmHg 82%
    18:00 -3°C° 0 mm 2 mps 750 mmHg 82%
    19:00 -3°C° 0 mm 2 mps 750 mmHg 82%
    20:00 -3°C° 0 mm 2 mps 750 mmHg 82%
    21:00 -3°C° 0 mm 2 mps 750 mmHg 82%
    22:00 -4°C° 0 mm 2 mps 750 mmHg 82%
    23:00 -4°C° 0 mm 2 mps 751 mmHg 82%

    Day after tomorrow, 23 November, Friday

    Time Temperature Precipitation Wind Pressure Humidity
    00:00 -4°C° 0 mm 2 mps 751 mmHg 81%
    01:00 -4°C° 0 mm 2 mps 751 mmHg 81%
    02:00 -4°C° 0 mm 2 mps 751 mmHg 81%
    03:00 -4°C° 0 mm 2 mps 751 mmHg 81%
    04:00 -4°C° 0 mm 2 mps 751 mmHg 81%
    05:00 -4°C° 0 mm 2 mps 751 mmHg 81%
    06:00 -4°C° 0 mm 2 mps 751 mmHg 81%
    07:00 -4°C° 0 mm 2 mps 751 mmHg 80%
    08:00 -4°C° 0 mm 2 mps 751 mmHg 80%
    09:00 -3°C° 0 mm 2 mps 751 mmHg 75%
    10:00 -2°C° 0 mm 2 mps 751 mmHg 71%
    11:00 +1°C° 0 mm 2 mps 751 mmHg 66%
    12:00 +1°C° 0 mm 2 mps 751 mmHg 65%
    13:00 +2°C° 0 mm 2 mps 751 mmHg 64%
    14:00 +3°C° 0 mm 2 mps 751 mmHg 64%
    15:00 +2°C° 0 mm 2 mps 750 mmHg 68%
    16:00 +1°C° 0 mm 2 mps 750 mmHg 73%
    17:00 -1°C° 0 mm 2 mps 750 mmHg 78%
    18:00 -1°C° 0 mm 2 mps 750 mmHg 80%
    19:00 -1°C° 0 mm 2 mps 750 mmHg 82%
    20:00 -2°C° 0 mm 3 mps 749 mmHg 84%
    21:00 -1°C° 0 mm 3 mps 749 mmHg 86%
    22:00 -1°C° 0 mm 3 mps 749 mmHg 88%
    23:00 -1°C° 0 mm 3 mps 749 mmHg 90%

    24 November, Saturday

    Time Temperature Precipitation Wind Pressure Humidity
    00:00 -1°C° 0 mm 3 mps 748 mmHg 91%
    01:00 -1°C° 0 mm 3 mps 748 mmHg 92%
    02:00 -1°C° 0 mm 3 mps 748 mmHg 93%
    03:00 0°C° 0 mm 3 mps 747 mmHg 93%
    04:00 0°C° 0 mm 3 mps 747 mmHg 93%
    05:00 0°C° 0 mm 3 mps 746 mmHg 93%
    06:00 0°C° 0 mm 3 mps 746 mmHg 93%
    07:00 0°C° 0 mm 3 mps 745 mmHg 93%
    08:00 0°C° 0 mm 3 mps 745 mmHg 93%
    09:00 +1°C° 0 mm 3 mps 745 mmHg 90%
    10:00 +2°C° 0 mm 3 mps 745 mmHg 87%
    11:00 +3°C° 0 mm 4 mps 744 mmHg 84%
    12:00 +4°C° 0 mm 3 mps 744 mmHg 84%
    13:00 +4°C° 0 mm 3 mps 743 mmHg 84%
    14:00 +4°C° 0 mm 3 mps 743 mmHg 84%
    15:00 +4°C° 0.3 mm 3 mps 743 mmHg 87%
    16:00 +4°C° 0.3 mm 2 mps 742 mmHg 90%
    17:00 +4°C° 0.3 mm 2 mps 742 mmHg 93%
    18:00 +3°C° 0.2 mm 2 mps 742 mmHg 93%
    19:00 +3°C° 0.2 mm 2 mps 742 mmHg 94%
    20:00 +2°C° 0.2 mm 3 mps 742 mmHg 94%
    21:00 +2°C° 0.1 mm 3 mps 741 mmHg 94%
    22:00 +2°C° 0.1 mm 3 mps 741 mmHg 95%
    23:00 +2°C° 0.1 mm 3 mps 741 mmHg 95%

    25 November, Sunday

    Time Temperature Precipitation Wind Pressure Humidity
    00:00 +3°C° 0.3 mm 3 mps 741 mmHg 95%
    01:00 +3°C° 0.3 mm 3 mps 741 mmHg 95%
    02:00 +3°C° 0.3 mm 3 mps 741 mmHg 95%
    03:00 +3°C° 0.2 mm 3 mps 740 mmHg 95%
    04:00 +3°C° 0.2 mm 3 mps 740 mmHg 95%
    05:00 +3°C° 0.2 mm 3 mps 740 mmHg 95%
    06:00 +3°C° 0.1 mm 3 mps 740 mmHg 95%
    07:00 +3°C° 0.1 mm 3 mps 740 mmHg 95%
    08:00 +3°C° 0.1 mm 4 mps 740 mmHg 95%
    09:00 +3°C° 0 mm 4 mps 740 mmHg 93%
    10:00 +3°C° 0 mm 4 mps 741 mmHg 91%
    11:00 +3°C° 0 mm 4 mps 741 mmHg 89%
    12:00 +3°C° 0 mm 4 mps 741 mmHg 88%
    13:00 +3°C° 0 mm 4 mps 741 mmHg 87%
    14:00 +3°C° 0 mm 4 mps 741 mmHg 86%
    15:00 +3°C° 0 mm 4 mps 741 mmHg 87%
    16:00 +2°C° 0 mm 3 mps 741 mmHg 88%
    17:00 +2°C° 0 mm 3 mps 741 mmHg 90%
    18:00 +2°C° 0 mm 3 mps 741 mmHg 90%
    19:00 +2°C° 0 mm 3 mps 741 mmHg 91%
    20:00 +2°C° 0 mm 2 mps 741 mmHg 91%
    21:00 +2°C° 0 mm 2 mps 742 mmHg 91%
    22:00 +2°C° 0 mm 2 mps 742 mmHg 91%
    23:00 +2°C° 0 mm 2 mps 742 mmHg 91%

    26 November, Monday

    Time Temperature Precipitation Wind Pressure Humidity
    00:00 +2°C° 0 mm 2 mps 742 mmHg 91%
    01:00 +2°C° 0 mm 2 mps 742 mmHg 91%
    02:00 +2°C° 0 mm 2 mps 742 mmHg 92%
    03:00 +2°C° 0 mm 2 mps 742 mmHg 91%
    04:00 0°C° 0 mm 3 mps 742 mmHg 90%
    05:00 0°C° 0 mm 3 mps 742 mmHg 90%
    06:00 0°C° 0 mm 3 mps 742 mmHg 89%
    07:00 0°C° 0 mm 3 mps 742 mmHg 87%
    08:00 -1°C° 0 mm 3 mps 743 mmHg 86%
    09:00 -2°C° 0 mm 4 mps 743 mmHg 84%
    10:00 -2°C° 0 mm 4 mps 743 mmHg 81%
    11:00 -2°C° 0 mm 4 mps 743 mmHg 79%
    12:00 -2°C° 0 mm 4 mps 743 mmHg 77%
    13:00 -2°C° 0 mm 4 mps 743 mmHg 74%
    14:00 -2°C° 0 mm 4 mps 743 mmHg 72%
    15:00 -2°C° 0 mm 4 mps 743 mmHg 73%
    16:00 -3°C° 0 mm 4 mps 743 mmHg 74%
    17:00 -3°C° 0 mm 4 mps 743 mmHg 75%
    18:00 -4°C° 0 mm 4 mps 743 mmHg 77%
    19:00 -4°C° 0 mm 4 mps 744 mmHg 78%
    20:00 -5°C° 0 mm 4 mps 744 mmHg 80%
    21:00 -5°C° 0 mm 4 mps 744 mmHg 81%
    22:00 -5°C° 0 mm 4 mps 744 mmHg 81%
    23:00 -7°C° 0 mm 4 mps 744 mmHg 82%
    Show more